Orbital Elements at Epoch 2459000.5 (2020-May-31.0) TDB
Reference: JPL 28 (heliocentric ecliptic J2000)
Element | Value | Uncertainty (1-sigma) | Units |
e | .02663157132999677 | 5.3327e-08 | |
a | 3.148012029520099 | 2.5774e-08 | au |
q | 3.064175522608247 | 1.7058e-07 | au |
i | 15.4677494601303 | 5.4666e-06 | deg |
node | 49.03033291354111 | 1.8214e-05 | deg |
peri | 134.9296560936333 | 9.323e-05 | deg |
M | 282.4749709274265 | 9.1529e-05 | deg |
tp | 2459439.831596650176 (2021-Aug-13.33159665) | 0.00052024 | TDB |
period | 2040.107261952854 5.59 | 2.5055e-05 6.86e-08 | d yr |
n | .1764613100074928 | 2.1672e-09 | deg/d |
Q | 3.231848536431952 | 2.6461e-08 | au |
|
| | Orbit Determination Parameters
Additional Information
|